Grand Forks AFB, ND

9:17 AM CDT on March 28, 2017 (GMT -0500)
Grand Forks Air Force Base

Weather History for KRDR - February, 2014

Change the Weather History Date:

Thursday, February 20, 2014

  Actual Average Record
Temperature  
Mean Temperature 12 °F -  
Max Temperature 21 °F 23 °F 50 °F (2000)
Min Temperature 2 °F 6 °F -31 °F (2008)
Degree Days  
Heating Degree Days 54    
Moisture  
Dew Point 10 °F    
Average Humidity 83    
Maximum Humidity 100    
Minimum Humidity 67    
Precipitation  
Precipitation 0.00 in - - ()
Sea Level Pressure  
Sea Level Pressure 29.66 in    
Wind  
Wind Speed 10 mph (NNW)    
Max Wind Speed 22 mph    
Max Gust Speed 28 mph    
Visibility 9 miles    
Events Snow    
Averages and records for this station are not official NWS values.
T = Trace of Precipitation, MM = Missing Value Source: NWS Daily Summary

Daily Weather History Graph

Daily Weather History Graph

Search for Another Location

Airport or City:

Trip Planner

Search our weather history database for the weather conditions in past years. The results will help you decide how hot, cold, wet, or windy it might be!

Date:

Astronomy

Feb. 20, 2014 Rise Set
Actual Time 7:27 AM CST 6:00 PM CST
Civil Twilight 6:55 AM CST 6:31 PM CST
Nautical Twilight 6:19 AM CST 7:07 PM CST
Astronomical Twilight 5:43 AM CST 7:43 PM CST
Moon No Moon Rise 9:44 AM CST (2/20)
Length of Visible Light 11h 36m
Length of Day
10h 33m
Waning Gibbous, 70% of the Moon is Illuminated
Feb 20
Waning Gibbous
Feb 22
Last Quarter
Mar 1
New
Mar 8
First Quarter
Mar 16
Full

Hourly Weather History & Observations

Time (CST) Temp. Windchill Dew Point Humidity Pressure Visibility Wind Dir Wind Speed Gust Speed Precip Events Conditions
12:58 AM 21.0 °F 10.6 °F 18.1 °F 89% 29.58 in 10.0 mi NW 9.2 mph - N/A   Overcast
1:58 AM 21.2 °F 13.6 °F 18.5 °F 89% 29.58 in 10.0 mi NNW 5.8 mph - N/A   Mostly Cloudy
2:58 AM 19.8 °F 13.2 °F 17.2 °F 90% 29.58 in 10.0 mi NW 4.6 mph - N/A   Mostly Cloudy
3:58 AM 17.4 °F 9.1 °F 14.7 °F 89% 29.58 in 10.0 mi NW 5.8 mph - N/A   Clear
3:59 AM 17.6 °F 8.2 °F 14.0 °F 86% 29.52 in 10.0 mi WNW 6.9 mph - N/A   Partly Cloudy
4:09 AM 17.6 °F 9.3 °F 14.0 °F 86% 29.53 in 10.0 mi NW 5.8 mph - N/A   Mostly Cloudy
4:19 AM 17.6 °F 12.3 °F 15.8 °F 93% 29.52 in 10.0 mi NNW 3.5 mph - N/A   Scattered Clouds
4:24 AM 17.6 °F 10.7 °F 15.8 °F 93% 29.52 in 10.0 mi NW 4.6 mph - N/A   Mostly Cloudy
4:39 AM 15.8 °F 10.2 °F 14.0 °F 93% 29.52 in 10.0 mi NNW 3.5 mph - N/A   Mostly Cloudy
4:54 AM 15.8 °F 10.2 °F 14.0 °F 93% 29.52 in 10.0 mi NW 3.5 mph - N/A   Overcast
4:58 AM 17.6 °F 12.3 °F 14.0 °F 86% 29.58 in 10.0 mi WNW 3.5 mph - N/A   Overcast
5:18 AM 19.4 °F 11.5 °F 17.6 °F 93% 29.53 in 10.0 mi NW 5.8 mph - N/A   Overcast
5:43 AM 19.4 °F 8.6 °F 17.6 °F 93% 29.54 in 10.0 mi NW 9.2 mph - N/A   Overcast
5:48 AM 19.4 °F 8.6 °F 17.6 °F 93% 29.54 in 9.0 mi NW 9.2 mph - N/A   Overcast
5:58 AM 19.4 °F 8.6 °F 17.6 °F 93% 29.61 in 9.0 mi NW 9.2 mph - N/A   Overcast
6:03 AM 19.4 °F 7.2 °F 17.6 °F 93% 29.55 in 10.0 mi NW 11.5 mph - N/A   Overcast
6:13 AM 19.4 °F 7.2 °F 17.6 °F 93% 29.55 in 10.0 mi NNW 11.5 mph - N/A   Overcast
6:38 AM 17.6 °F 6.4 °F 17.6 °F 100% 29.55 in 10.0 mi NW 9.2 mph - N/A   Mostly Cloudy
6:43 AM 17.6 °F 7.3 °F 17.6 °F 100% 29.56 in 10.0 mi NW 8.1 mph - N/A   Scattered Clouds
6:58 AM 18.0 °F 5.4 °F 16.3 °F 93% 29.62 in 10.0 mi WNW 11.5 mph - N/A   Partly Cloudy
7:03 AM 17.6 °F 5.0 °F 15.8 °F 93% 29.56 in 10.0 mi WNW 11.5 mph - N/A   Mostly Cloudy
7:13 AM 17.6 °F 5.7 °F 15.8 °F 93% 29.56 in 10.0 mi WNW 10.4 mph - N/A   Overcast
7:23 AM 17.6 °F 7.3 °F 15.8 °F 93% 29.56 in 10.0 mi NW 8.1 mph - N/A   Overcast
7:28 AM 17.6 °F 9.3 °F 15.8 °F 93% 29.57 in 8.0 mi NW 5.8 mph - N/A   Overcast
7:33 AM 17.6 °F 9.3 °F 15.8 °F 93% 29.57 in 10.0 mi NNW 5.8 mph - N/A   Overcast
7:38 AM 17.6 °F 9.3 °F 15.8 °F 93% 29.57 in 9.0 mi NNW 5.8 mph - N/A   Overcast
7:48 AM 17.6 °F 9.3 °F 15.8 °F 93% 29.57 in 2.0 mi NNW 5.8 mph - N/A   Overcast
7:53 AM 17.6 °F 9.3 °F 15.8 °F 93% 29.57 in 1.5 mi NNW 5.8 mph - N/A   Overcast
7:58 AM 18.0 °F 9.8 °F 16.5 °F 94% 29.64 in 1.0 mi NNW 5.8 mph - N/A   Overcast
8:03 AM 17.6 °F 9.3 °F 15.8 °F 93% 29.58 in 0.8 mi NNW 5.8 mph - N/A   Mist
8:08 AM 17.6 °F 9.3 °F 17.6 °F 100% 29.58 in 1.0 mi North 5.8 mph - N/A   Mist
8:13 AM 17.6 °F 8.2 °F 17.6 °F 100% 29.58 in 1.8 mi North 6.9 mph - N/A   Overcast
8:18 AM 17.6 °F 7.3 °F 17.6 °F 100% 29.58 in 5.0 mi North 8.1 mph - N/A   Overcast
8:23 AM 17.6 °F 8.2 °F 17.6 °F 100% 29.59 in 9.0 mi North 6.9 mph - N/A   Overcast
8:38 AM 17.6 °F 9.3 °F 17.6 °F 100% 29.59 in 10.0 mi North 5.8 mph - N/A   Overcast
8:58 AM 18.1 °F 7.9 °F 16.7 °F 94% 29.68 in 10.0 mi North 8.1 mph - N/A   Overcast
9:00 AM 17.6 °F 6.4 °F 17.6 °F 100% 29.61 in 10.0 mi North 9.2 mph - N/A Snow Light Snow
9:10 AM 17.6 °F 7.3 °F 17.6 °F 100% 29.61 in 9.0 mi North 8.1 mph - N/A Snow Light Snow
9:34 AM 17.6 °F 8.2 °F 17.6 °F 100% 29.62 in 10.0 mi North 6.9 mph - N/A   Overcast
9:49 AM 17.6 °F 5.0 °F 15.8 °F 93% 29.62 in 7.0 mi North 11.5 mph - N/A   Overcast
9:55 AM 17.6 °F 5.7 °F 15.8 °F 93% 29.62 in 6.0 mi North 10.4 mph - N/A Snow Light Snow
9:58 AM 17.6 °F 5.7 °F 15.8 °F 93% 29.68 in 6.0 mi North 10.4 mph - 0.00 in Snow Light Snow
10:08 AM 17.6 °F 5.0 °F 15.8 °F 93% 29.62 in 5.0 mi NNW 11.5 mph - N/A Snow Light Snow
10:16 AM 17.6 °F 5.0 °F 14.0 °F 86% 29.62 in 6.0 mi North 11.5 mph - N/A   Overcast
10:46 AM 15.8 °F 0.9 °F 12.2 °F 86% 29.63 in 9.0 mi NNW 15.0 mph - N/A   Overcast
10:58 AM 16.3 °F 1.6 °F 11.8 °F 82% 29.70 in 10.0 mi NNW 15.0 mph - 0.00 in   Overcast
11:03 AM 15.8 °F 0.9 °F 12.2 °F 86% 29.64 in 10.0 mi North 15.0 mph - N/A   Overcast
11:13 AM 15.8 °F 1.4 °F 10.4 °F 79% 29.65 in 10.0 mi North 13.8 mph - N/A   Overcast
11:23 AM 15.8 °F 1.4 °F 10.4 °F 79% 29.66 in 10.0 mi NNW 13.8 mph - N/A   Overcast
11:28 AM 15.8 °F 1.4 °F 10.4 °F 79% 29.66 in 10.0 mi NNW 13.8 mph - N/A   Overcast
11:43 AM 15.8 °F 1.4 °F 10.4 °F 79% 29.67 in 10.0 mi NNW 13.8 mph - N/A   Overcast
11:44 AM 15.8 °F 2.1 °F 8.6 °F 73% 29.67 in 10.0 mi NNW 12.7 mph - N/A Snow Light Snow
11:49 AM 15.8 °F 1.4 °F 8.6 °F 73% 29.67 in 10.0 mi NNW 13.8 mph - N/A Snow Light Snow
11:54 AM 15.8 °F 0.3 °F 8.6 °F 73% 29.67 in 10.0 mi NNW 16.1 mph - N/A Snow Light Snow
11:58 AM 15.3 °F 0.8 °F 8.8 °F 76% 29.73 in 10.0 mi NNW 13.8 mph - 0.00 in Snow Light Snow
11:59 AM 15.8 °F 1.4 °F 8.6 °F 73% 29.67 in 10.0 mi NNW 13.8 mph - N/A   Overcast
12:04 PM 14.0 °F -1.4 °F 8.6 °F 79% 29.67 in 10.0 mi NNW 15.0 mph - N/A   Overcast
12:58 PM 14.0 °F -2.0 °F 6.6 °F 72% 29.74 in 10.0 mi NNW 16.1 mph - 0.00 in   Overcast
1:28 PM 12.2 °F -4.8 °F 5.0 °F 73% 29.67 in 10.0 mi NNW 17.3 mph 25.3 mph N/A   Overcast
1:58 PM 12.0 °F -5.6 °F 4.8 °F 73% 29.75 in 10.0 mi NNW 18.4 mph - N/A   Overcast
2:03 PM 12.2 °F -5.3 °F 5.0 °F 73% 29.68 in 10.0 mi NNW 18.4 mph - N/A   Overcast
2:33 PM 12.2 °F -4.8 °F 5.0 °F 73% 29.70 in 10.0 mi NNW 17.3 mph - N/A   Overcast
2:53 PM 12.2 °F -5.3 °F 5.0 °F 73% 29.70 in 10.0 mi NNW 18.4 mph - N/A   Mostly Cloudy
2:58 PM 12.4 °F -5.6 °F 4.8 °F 72% 29.76 in 10.0 mi North 19.6 mph - N/A   Mostly Cloudy
3:03 PM 12.2 °F -4.8 °F 5.0 °F 73% 29.70 in 10.0 mi North 17.3 mph - N/A   Scattered Clouds
3:28 PM 12.2 °F -3.1 °F 5.0 °F 73% 29.70 in 10.0 mi North 13.8 mph - N/A   Mostly Cloudy
3:32 PM 12.2 °F -4.3 °F 5.0 °F 73% 29.69 in 10.0 mi North 16.1 mph - N/A Snow Light Snow
3:52 PM 12.2 °F -5.8 °F 6.8 °F 79% 29.70 in 9.0 mi North 19.6 mph 23.0 mph N/A Snow Light Snow
3:57 PM 12.2 °F -5.3 °F 6.8 °F 79% 29.70 in 9.0 mi NNW 18.4 mph - N/A   Overcast
3:58 PM 12.9 °F -4.4 °F 6.6 °F 76% 29.77 in 9.0 mi NNW 18.4 mph - 0.00 in   Overcast
4:01 PM 12.2 °F -5.3 °F 6.8 °F 79% 29.70 in 10.0 mi NNW 18.4 mph - N/A   Light Freezing Rain
4:06 PM 12.2 °F -5.8 °F 6.8 °F 79% 29.70 in 10.0 mi North 19.6 mph - N/A   Light Freezing Rain
4:11 PM 14.0 °F -4.3 °F 6.8 °F 73% 29.70 in 10.0 mi North 21.9 mph 27.6 mph N/A   Overcast
4:16 PM 14.0 °F -3.0 °F 6.8 °F 73% 29.70 in 10.0 mi North 18.4 mph 27.6 mph N/A   Mostly Cloudy
4:26 PM 14.0 °F -3.0 °F 6.8 °F 73% 29.71 in 10.0 mi North 18.4 mph - N/A   Scattered Clouds
4:31 PM 12.2 °F -4.8 °F 6.8 °F 79% 29.71 in 10.0 mi North 17.3 mph 24.2 mph N/A   Mostly Cloudy
4:36 PM 12.2 °F -3.7 °F 6.8 °F 79% 29.71 in 10.0 mi North 15.0 mph 24.2 mph N/A   Mostly Cloudy
4:37 PM 12.2 °F -3.7 °F 6.8 °F 79% 29.71 in 10.0 mi North 15.0 mph 24.2 mph N/A   Mostly Cloudy
4:47 PM 12.2 °F -3.1 °F 6.8 °F 79% 29.71 in 10.0 mi North 13.8 mph - N/A   Mostly Cloudy
4:49 PM 12.2 °F -2.5 °F 6.8 °F 79% 29.71 in 10.0 mi North 12.7 mph - N/A Snow Light Snow
4:58 PM 13.1 °F -2.0 °F 6.3 °F 74% 29.79 in 10.0 mi NNW 13.8 mph - 0.00 in Snow Light Snow
4:59 PM 12.2 °F -3.1 °F 6.8 °F 79% 29.72 in 10.0 mi NNW 13.8 mph - N/A   Overcast
5:04 PM 14.0 °F -0.8 °F 5.0 °F 67% 29.73 in 10.0 mi NNW 13.8 mph - N/A   Overcast
5:14 PM 14.0 °F -0.2 °F 6.8 °F 73% 29.73 in 10.0 mi NNW 12.7 mph - N/A   Overcast
5:19 PM 12.2 °F -2.5 °F 6.8 °F 79% 29.73 in 10.0 mi NNW 12.7 mph - N/A   Overcast
5:44 PM 12.2 °F -2.5 °F 5.0 °F 73% 29.73 in 10.0 mi NNW 12.7 mph - N/A   Overcast
5:58 PM 11.8 °F -1.5 °F 4.8 °F 73% 29.81 in 10.0 mi NNW 10.4 mph - N/A   Overcast
6:00 PM 12.2 °F -2.5 °F 5.0 °F 73% 29.74 in 10.0 mi NNW 12.7 mph - N/A   Overcast
6:02 PM 12.2 °F -3.7 °F 5.0 °F 73% 29.74 in 10.0 mi NNW 15.0 mph - N/A Snow Light Snow
6:12 PM 12.2 °F -3.1 °F 6.8 °F 79% 29.74 in 10.0 mi NW 13.8 mph - N/A Snow Light Snow
6:17 PM 12.2 °F -3.1 °F 5.0 °F 73% 29.73 in 10.0 mi NW 13.8 mph - N/A Snow Light Snow
6:23 PM 12.2 °F -3.1 °F 5.0 °F 73% 29.74 in 10.0 mi NW 13.8 mph - N/A   Overcast
6:54 PM 10.4 °F -6.0 °F 3.2 °F 73% 29.73 in 10.0 mi NW 15.0 mph - N/A Snow Light Snow
6:58 PM 10.0 °F -6.5 °F 3.6 °F 75% 29.80 in 10.0 mi NW 15.0 mph - 0.00 in Snow Light Snow
7:12 PM 8.6 °F -7.7 °F 3.2 °F 79% 29.73 in 10.0 mi NW 13.8 mph - N/A   Overcast
7:32 PM 8.6 °F -5.5 °F 3.2 °F 79% 29.72 in 9.0 mi North 10.4 mph - N/A   Overcast
7:37 PM 8.6 °F -5.5 °F 3.2 °F 79% 29.72 in 6.0 mi North 10.4 mph - N/A   Haze
7:42 PM 8.6 °F -4.7 °F 1.4 °F 73% 29.72 in 5.0 mi North 9.2 mph - N/A   Haze
7:53 PM 6.8 °F -7.8 °F 1.4 °F 79% 29.72 in 7.0 mi North 10.4 mph - N/A Snow Light Snow
7:58 PM 5.0 °F -10.0 °F 1.4 °F 85% 29.78 in 8.0 mi North 10.4 mph - 0.00 in Snow Light Snow
8:13 PM 5.0 °F -10.0 °F 1.4 °F 85% 29.71 in 9.0 mi North 10.4 mph - N/A Snow Light Snow
8:26 PM 5.0 °F -9.1 °F 1.4 °F 85% 29.71 in 10.0 mi NNW 9.2 mph - N/A   Overcast
8:36 PM 5.0 °F -8.1 °F -0.4 °F 78% 29.71 in 10.0 mi NNW 8.1 mph - N/A   Overcast
8:56 PM 3.2 °F -10.3 °F -0.4 °F 85% 29.71 in 10.0 mi NNW 8.1 mph - N/A   Overcast
8:58 PM 2.7 °F -10.9 °F -1.1 °F 84% 29.79 in 10.0 mi NW 8.1 mph - 0.00 in   Overcast
9:33 PM 5.0 °F -5.6 °F -0.4 °F 78% 29.71 in 10.0 mi NNW 5.8 mph - N/A Snow Light Snow
9:43 PM 5.0 °F -6.9 °F -0.4 °F 78% 29.71 in 10.0 mi NNW 6.9 mph - N/A Snow Light Snow
9:55 PM 5.0 °F -8.1 °F -2.2 °F 72% 29.71 in 10.0 mi NNW 8.1 mph - N/A   Overcast
9:58 PM 5.0 °F -8.1 °F -2.2 °F 72% 29.78 in 10.0 mi NNW 8.1 mph - 0.00 in   Overcast
10:13 PM 3.2 °F -11.3 °F -2.2 °F 78% 29.71 in 10.0 mi NW 9.2 mph - N/A   Overcast
10:58 PM 3.6 °F -13.4 °F -2.4 °F 76% 29.78 in 10.0 mi NNW 12.7 mph - N/A   Overcast
11:58 PM 2.5 °F -14.8 °F -3.5 °F 76% 29.77 in 10.0 mi NNW 12.7 mph - N/A   Mostly Cloudy